Time,TemperatureF,DewpointF,PressureIn,WindDirection,WindDirectionDegrees,WindSpeedMPH,WindSpeedGustMPH,Humidity,HourlyPrecipIn,Conditions,Clouds,dailyrainin,SoftwareType,DateUTC
2013-01-10 00:02:00,17.4,2.8,29.65,WSW,251,5.0,13.0,52,-99.99,,,-99.99,meteohub,2013-01-10 08:02:00,
2013-01-10 00:07:00,17.4,3.2,29.65,WSW,256,4.0,13.0,53,-99.99,,,-99.99,meteohub,2013-01-10 08:07:00,
2013-01-10 00:12:00,17.4,2.8,29.65,West,267,10.0,12.0,52,-99.99,,,-99.99,meteohub,2013-01-10 08:12:00,
2013-01-10 00:17:00,17.2,2.7,29.65,WSW,256,11.0,13.0,52,-99.99,,,-99.99,meteohub,2013-01-10 08:17:00,
2013-01-10 00:22:00,17.2,2.7,29.65,SW,235,6.0,13.0,52,-99.99,,,-99.99,meteohub,2013-01-10 08:22:00,
2013-01-10 00:32:00,17.1,2.5,29.65,South,190,4.0,11.0,52,-99.99,,,-99.99,meteohub,2013-01-10 08:32:00,
2013-01-10 00:42:00,16.7,1.2,29.65,WSW,249,8.0,14.0,50,-99.99,,,-99.99,meteohub,2013-01-10 08:42:00,
2013-01-10 00:47:00,16.7,1.2,29.65,NW,306,10.0,14.0,50,-99.99,,,-99.99,meteohub,2013-01-10 08:47:00,
2013-01-10 00:52:00,16.5,0.3,29.65,SW,232,5.0,14.0,48,-99.99,,,-99.99,meteohub,2013-01-10 08:52:00,
2013-01-10 00:57:00,16.5,0.7,29.65,SW,235,9.0,14.0,49,-99.99,,,-99.99,meteohub,2013-01-10 08:57:00,
2013-01-10 01:02:00,16.5,0.7,29.65,SW,220,6.0,14.0,49,-99.99,,,-99.99,meteohub,2013-01-10 09:02:00,
2013-01-10 01:07:00,16.5,1.0,29.65,SW,230,8.0,14.0,50,-99.99,,,-99.99,meteohub,2013-01-10 09:07:00,
2013-01-10 01:12:00,16.5,1.0,29.68,WNW,300,9.0,13.0,50,-99.99,,,-99.99,meteohub,2013-01-10 09:12:00,
2013-01-10 01:22:00,16.5,1.0,29.68,SW,218,4.0,13.0,50,-99.99,,,-99.99,meteohub,2013-01-10 09:22:00,
2013-01-10 01:27:00,16.5,1.0,29.65,WNW,288,6.0,13.0,50,-99.99,,,-99.99,meteohub,2013-01-10 09:27:00,
2013-01-10 01:32:00,16.3,1.0,29.65,SW,231,6.0,11.0,50,-99.99,,,-99.99,meteohub,2013-01-10 09:32:00,
2013-01-10 01:37:00,16.2,0.9,29.65,WSW,251,9.0,13.0,50,-99.99,,,-99.99,meteohub,2013-01-10 09:37:00,
2013-01-10 01:42:00,15.8,-0.4,29.68,WSW,237,8.0,16.0,48,-99.99,,,-99.99,meteohub,2013-01-10 09:42:00,
2013-01-10 01:47:00,15.8,0.0,29.68,West,266,8.0,16.0,49,-99.99,,,-99.99,meteohub,2013-01-10 09:47:00,
2013-01-10 01:52:00,15.8,0.5,29.68,WSW,246,8.0,16.0,50,-99.99,,,-99.99,meteohub,2013-01-10 09:52:00,
2013-01-10 01:57:00,15.8,0.0,29.68,West,261,5.0,17.0,49,-99.99,,,-99.99,meteohub,2013-01-10 09:57:00,
2013-01-10 02:07:00,15.1,-1.1,29.68,SW,233,6.0,17.0,48,-99.99,,,-99.99,meteohub,2013-01-10 10:07:00,
2013-01-10 02:17:00,14.9,-0.8,29.68,West,259,5.0,13.0,49,-99.99,,,-99.99,meteohub,2013-01-10 10:17:00,
2013-01-10 02:22:00,14.9,-0.8,29.68,WSW,247,10.0,10.0,49,-99.99,,,-99.99,meteohub,2013-01-10 10:22:00,
2013-01-10 02:32:00,14.5,-2.0,29.68,SSW,195,6.0,13.0,47,-99.99,,,-99.99,meteohub,2013-01-10 10:32:00,
2013-01-10 02:37:00,14.5,-1.7,29.68,SW,214,10.0,13.0,48,-99.99,,,-99.99,meteohub,2013-01-10 10:37:00,
2013-01-10 02:42:00,14.5,-1.7,29.68,West,261,15.0,15.0,48,-99.99,,,-99.99,meteohub,2013-01-10 10:42:00,
2013-01-10 02:47:00,14.4,-2.2,29.68,SW,224,8.0,15.0,47,-99.99,,,-99.99,meteohub,2013-01-10 10:47:00,
2013-01-10 02:52:00,14.4,-2.2,29.68,West,267,6.0,15.0,47,-99.99,,,-99.99,meteohub,2013-01-10 10:52:00,
2013-01-10 02:57:00,14.4,-2.2,29.68,SW,236,11.0,15.0,47,-99.99,,,-99.99,meteohub,2013-01-10 10:57:00,
2013-01-10 03:02:00,14.4,-2.2,29.68,West,263,11.0,15.0,47,-99.99,,,-99.99,meteohub,2013-01-10 11:02:00,
2013-01-10 03:07:00,14.2,-2.4,29.68,SW,224,13.0,15.0,47,-99.99,,,-99.99,meteohub,2013-01-10 11:07:00,
2013-01-10 03:17:00,13.6,-2.9,29.68,SW,230,13.0,13.0,47,-99.99,,,-99.99,meteohub,2013-01-10 11:17:00,
2013-01-10 03:22:00,13.5,-3.1,29.68,WSW,237,11.0,15.0,47,-99.99,,,-99.99,meteohub,2013-01-10 11:22:00,
2013-01-10 03:32:00,13.6,-2.9,29.68,SW,232,9.0,15.0,47,-99.99,,,-99.99,meteohub,2013-01-10 11:32:00,
2013-01-10 03:42:00,13.6,-2.9,29.68,WSW,237,4.0,15.0,47,-99.99,,,-99.99,meteohub,2013-01-10 11:42:00,
2013-01-10 03:47:00,13.6,-2.9,29.68,SW,236,11.0,15.0,47,-99.99,,,-99.99,meteohub,2013-01-10 11:47:00,
2013-01-10 03:52:00,13.6,-2.9,29.68,NW,307,8.0,14.0,47,-99.99,,,-99.99,meteohub,2013-01-10 11:52:00,
2013-01-10 03:57:00,13.6,-2.9,29.68,WNW,293,4.0,13.0,47,-99.99,,,-99.99,meteohub,2013-01-10 11:57:00,
2013-01-10 04:02:00,13.6,-2.9,29.68,West,280,11.0,13.0,47,-99.99,,,-99.99,meteohub,2013-01-10 12:02:00,
2013-01-10 04:07:00,13.6,-2.9,29.68,SW,217,7.0,13.0,47,-99.99,,,-99.99,meteohub,2013-01-10 12:07:00,
2013-01-10 04:17:00,13.8,-2.7,29.68,SW,236,4.0,13.0,47,-99.99,,,-99.99,meteohub,2013-01-10 12:17:00,
2013-01-10 04:22:00,13.8,-2.7,29.68,North,353,4.0,13.0,47,-99.99,,,-99.99,meteohub,2013-01-10 12:22:00,
2013-01-10 04:27:00,13.8,-2.7,29.68,NNW,333,5.0,12.0,47,-99.99,,,-99.99,meteohub,2013-01-10 12:27:00,
2013-01-10 04:32:00,14.0,-2.0,29.68,NNE,27,6.0,10.0,48,-99.99,,,-99.99,meteohub,2013-01-10 12:32:00,
2013-01-10 04:37:00,14.2,-1.8,29.68,NNE,24,6.0,10.0,48,-99.99,,,-99.99,meteohub,2013-01-10 12:37:00,
2013-01-10 04:42:00,13.8,-2.2,29.68,NE,37,4.0,7.0,48,-99.99,,,-99.99,meteohub,2013-01-10 12:42:00,
2013-01-10 04:47:00,13.8,-2.2,29.68,NE,37,4.0,7.0,48,-99.99,,,-99.99,meteohub,2013-01-10 12:47:00,
2013-01-10 04:52:00,13.6,-2.4,29.68,NE,37,3.0,7.0,48,-99.99,,,-99.99,meteohub,2013-01-10 12:52:00,
2013-01-10 04:57:00,13.6,-2.4,29.68,NNE,21,0.0,6.0,48,-99.99,,,-99.99,meteohub,2013-01-10 12:57:00,
2013-01-10 05:02:00,13.8,-2.2,29.68,NNE,21,0.0,5.0,48,-99.99,,,-99.99,meteohub,2013-01-10 13:02:00,
2013-01-10 05:12:00,14.0,-1.7,29.68,NNE,21,3.0,5.0,49,-99.99,,,-99.99,meteohub,2013-01-10 13:12:00,
2013-01-10 05:17:00,14.2,-1.5,29.68,SW,230,4.0,4.0,49,-99.99,,,-99.99,meteohub,2013-01-10 13:17:00,
2013-01-10 05:22:00,14.4,-1.3,29.68,SW,226,3.0,4.0,49,-99.99,,,-99.99,meteohub,2013-01-10 13:22:00,
2013-01-10 05:27:00,14.5,-1.1,29.68,WNW,299,2.0,8.0,49,-99.99,,,-99.99,meteohub,2013-01-10 13:27:00,
2013-01-10 05:32:00,14.7,-0.9,29.68,WSW,239,3.0,8.0,49,-99.99,,,-99.99,meteohub,2013-01-10 13:32:00,
2013-01-10 05:42:00,14.9,-0.8,29.68,West,272,3.0,8.0,49,-99.99,,,-99.99,meteohub,2013-01-10 13:42:00,
2013-01-10 05:52:00,14.9,-0.8,29.68,SW,226,8.0,8.0,49,-99.99,,,-99.99,meteohub,2013-01-10 13:52:00,
2013-01-10 05:57:00,14.9,-0.8,29.68,WSW,241,5.0,8.0,49,-99.99,,,-99.99,meteohub,2013-01-10 13:57:00,
2013-01-10 06:02:00,14.9,-0.8,29.68,SW,227,4.0,8.0,49,-99.99,,,-99.99,meteohub,2013-01-10 14:02:00,
2013-01-10 06:12:00,14.5,-1.1,29.68,WNW,287,4.0,8.0,49,-99.99,,,-99.99,meteohub,2013-01-10 14:12:00,
2013-01-10 06:17:00,14.4,-1.7,29.68,SW,235,5.0,8.0,48,-99.99,,,-99.99,meteohub,2013-01-10 14:17:00,
2013-01-10 06:22:00,14.2,-1.8,29.68,WSW,245,6.0,8.0,48,-99.99,,,-99.99,meteohub,2013-01-10 14:22:00,
2013-01-10 06:27:00,13.6,-2.4,29.68,WSW,244,4.0,9.0,48,-99.99,,,-99.99,meteohub,2013-01-10 14:27:00,
2013-01-10 06:32:00,13.3,-2.7,29.68,WSW,241,4.0,9.0,48,-99.99,,,-99.99,meteohub,2013-01-10 14:32:00,
2013-01-10 06:37:00,12.7,-3.3,29.68,WSW,243,6.0,9.0,48,-99.99,,,-99.99,meteohub,2013-01-10 14:37:00,
2013-01-10 06:47:00,12.6,-3.5,29.68,West,266,0.0,9.0,48,-99.99,,,-99.99,meteohub,2013-01-10 14:47:00,
2013-01-10 06:52:00,12.7,-3.3,29.68,West,266,0.0,9.0,48,-99.99,,,-99.99,meteohub,2013-01-10 14:52:00,
2013-01-10 06:57:00,12.7,-3.3,29.68,West,266,3.0,4.0,48,-99.99,,,-99.99,meteohub,2013-01-10 14:57:00,
2013-01-10 07:02:00,12.7,-3.3,29.68,West,266,2.0,4.0,48,-99.99,,,-99.99,meteohub,2013-01-10 15:02:00,
2013-01-10 07:07:00,12.9,-3.1,29.68,WSW,252,6.0,6.0,48,-99.99,,,-99.99,meteohub,2013-01-10 15:07:00,
2013-01-10 07:12:00,12.9,-3.1,29.68,WSW,247,6.0,6.0,48,-99.99,,,-99.99,meteohub,2013-01-10 15:12:00,
2013-01-10 07:17:00,12.7,-3.3,29.68,WNW,282,6.0,9.0,48,-99.99,,,-99.99,meteohub,2013-01-10 15:17:00,
2013-01-10 07:22:00,12.7,-3.3,29.68,SW,229,5.0,10.0,48,-99.99,,,-99.99,meteohub,2013-01-10 15:22:00,
2013-01-10 07:27:00,12.6,-3.5,29.68,SW,232,5.0,10.0,48,-99.99,,,-99.99,meteohub,2013-01-10 15:27:00,
2013-01-10 07:32:00,12.4,-3.6,29.68,SW,234,5.0,10.0,48,-99.99,,,-99.99,meteohub,2013-01-10 15:32:00,
2013-01-10 07:37:00,12.2,-3.8,29.68,WSW,237,4.0,8.0,48,-99.99,,,-99.99,meteohub,2013-01-10 15:37:00,
2013-01-10 07:42:00,12.2,-3.8,29.72,SW,236,6.0,8.0,48,-99.99,,,-99.99,meteohub,2013-01-10 15:42:00,
2013-01-10 07:47:00,12.4,-3.6,29.72,SW,226,5.0,8.0,48,-99.99,,,-99.99,meteohub,2013-01-10 15:47:00,
2013-01-10 07:52:00,12.4,-3.6,29.72,SW,234,4.0,8.0,48,-99.99,,,-99.99,meteohub,2013-01-10 15:52:00,
2013-01-10 07:57:00,12.6,-3.5,29.72,SW,234,4.0,8.0,48,-99.99,,,-99.99,meteohub,2013-01-10 15:57:00,
2013-01-10 08:02:00,12.6,-3.5,29.72,SW,232,6.0,6.0,48,-99.99,,,-99.99,meteohub,2013-01-10 16:02:00,
2013-01-10 08:07:00,12.9,-3.1,29.72,SW,221,4.0,6.0,48,-99.99,,,-99.99,meteohub,2013-01-10 16:07:00,
2013-01-10 08:12:00,13.6,-2.4,29.72,SSW,209,6.0,6.0,48,-99.99,,,-99.99,meteohub,2013-01-10 16:12:00,
2013-01-10 08:22:00,14.5,-2.6,29.72,SW,217,3.0,9.0,46,-99.99,,,-99.99,meteohub,2013-01-10 16:22:00,
2013-01-10 08:27:00,15.1,-2.0,29.72,SW,215,6.0,9.0,46,-99.99,,,-99.99,meteohub,2013-01-10 16:27:00,
2013-01-10 08:32:00,15.1,-2.0,29.72,SSW,206,4.0,9.0,46,-99.99,,,-99.99,meteohub,2013-01-10 16:32:00,
2013-01-10 08:37:00,14.7,-2.7,29.72,SW,236,4.0,8.0,45,-99.99,,,-99.99,meteohub,2013-01-10 16:37:00,
2013-01-10 08:42:00,14.5,-2.9,29.72,SW,227,5.0,8.0,45,-99.99,,,-99.99,meteohub,2013-01-10 16:42:00,
2013-01-10 08:47:00,14.9,-2.6,29.72,SW,214,6.0,6.0,45,-99.99,,,-99.99,meteohub,2013-01-10 16:47:00,
2013-01-10 08:52:00,15.3,-2.2,29.72,SW,235,6.0,6.0,45,-99.99,,,-99.99,meteohub,2013-01-10 16:52:00,
2013-01-10 08:57:00,15.8,-1.8,29.72,SW,231,4.0,6.0,45,-99.99,,,-99.99,meteohub,2013-01-10 16:57:00,
2013-01-10 09:07:00,16.2,-1.5,29.72,SSW,204,5.0,6.0,45,-99.99,,,-99.99,meteohub,2013-01-10 17:07:00,
2013-01-10 09:17:00,15.8,-1.8,29.72,SSW,204,3.0,6.0,45,-99.99,,,-99.99,meteohub,2013-01-10 17:17:00,
2013-01-10 09:22:00,15.6,-2.0,29.72,SSW,204,0.0,6.0,45,-99.99,,,-99.99,meteohub,2013-01-10 17:22:00,
2013-01-10 09:27:00,15.6,-2.0,29.72,SSW,204,0.0,5.0,45,-99.99,,,-99.99,meteohub,2013-01-10 17:27:00,
2013-01-10 09:32:00,15.8,-1.8,29.72,SW,222,3.0,5.0,45,-99.99,,,-99.99,meteohub,2013-01-10 17:32:00,
2013-01-10 09:37:00,16.5,-1.1,29.72,SW,222,4.0,4.0,45,-99.99,,,-99.99,meteohub,2013-01-10 17:37:00,
2013-01-10 09:42:00,16.9,-1.3,29.72,WSW,243,3.0,4.0,44,-99.99,,,-99.99,meteohub,2013-01-10 17:42:00,
2013-01-10 09:52:00,17.1,-1.1,29.72,NNW,331,2.0,5.0,44,-99.99,,,-99.99,meteohub,2013-01-10 17:52:00,
2013-01-10 09:57:00,16.7,-1.5,29.72,NNW,331,0.0,5.0,44,-99.99,,,-99.99,meteohub,2013-01-10 17:57:00,
2013-01-10 10:02:00,16.5,-1.7,29.72,NNW,331,3.0,4.0,44,-99.99,,,-99.99,meteohub,2013-01-10 18:02:00,
2013-01-10 10:07:00,16.2,-2.4,29.72,WNW,289,5.0,5.0,43,-99.99,,,-99.99,meteohub,2013-01-10 18:07:00,
2013-01-10 10:17:00,15.8,-3.3,29.72,WNW,295,3.0,5.0,42,-99.99,,,-99.99,meteohub,2013-01-10 18:17:00,
2013-01-10 10:27:00,16.0,-3.6,29.72,West,279,4.0,6.0,41,-99.99,,,-99.99,meteohub,2013-01-10 18:27:00,
2013-01-10 10:32:00,16.2,-2.9,29.72,NW,324,5.0,6.0,42,-99.99,,,-99.99,meteohub,2013-01-10 18:32:00,
2013-01-10 10:37:00,16.2,-3.5,29.72,NNW,334,5.0,6.0,41,-99.99,,,-99.99,meteohub,2013-01-10 18:37:00,
2013-01-10 10:42:00,16.0,-4.5,29.72,WNW,301,3.0,6.0,39,-99.99,,,-99.99,meteohub,2013-01-10 18:42:00,
2013-01-10 10:47:00,16.5,-3.1,29.72,West,272,4.0,6.0,41,-99.99,,,-99.99,meteohub,2013-01-10 18:47:00,
2013-01-10 10:52:00,16.9,-2.7,29.72,NNW,332,3.0,6.0,41,-99.99,,,-99.99,meteohub,2013-01-10 18:52:00,
2013-01-10 10:57:00,17.6,-1.7,29.72,North,11,2.0,6.0,42,-99.99,,,-99.99,meteohub,2013-01-10 18:57:00,
2013-01-10 11:02:00,18.0,-2.7,29.72,West,259,0.0,8.0,39,-99.99,,,-99.99,meteohub,2013-01-10 19:02:00,
2013-01-10 11:07:00,17.8,-5.3,29.72,WNW,302,5.0,8.0,35,-99.99,,,-99.99,meteohub,2013-01-10 19:07:00,
2013-01-10 11:17:00,18.0,-3.5,29.72,SSW,213,3.0,6.0,38,-99.99,,,-99.99,meteohub,2013-01-10 19:17:00,
2013-01-10 11:22:00,17.6,-4.2,29.72,SW,236,4.0,6.0,37,-99.99,,,-99.99,meteohub,2013-01-10 19:22:00,
2013-01-10 11:27:00,17.8,-4.7,29.72,West,267,0.0,6.0,36,-99.99,,,-99.99,meteohub,2013-01-10 19:27:00,
2013-01-10 11:32:00,17.8,-4.7,29.72,NNW,328,2.0,5.0,36,-99.99,,,-99.99,meteohub,2013-01-10 19:32:00,
2013-01-10 11:42:00,16.9,-4.9,29.72,NNW,341,0.0,5.0,37,-99.99,,,-99.99,meteohub,2013-01-10 19:42:00,
2013-01-10 11:47:00,16.5,-5.3,29.72,NNW,341,0.0,4.0,37,-99.99,,,-99.99,meteohub,2013-01-10 19:47:00,
2013-01-10 11:52:00,16.5,-4.7,29.72,NNW,341,0.0,4.0,38,-99.99,,,-99.99,meteohub,2013-01-10 19:52:00,
2013-01-10 11:57:00,16.9,-3.8,29.68,NNW,341,0.0,3.0,39,-99.99,,,-99.99,meteohub,2013-01-10 19:57:00,
2013-01-10 12:02:00,17.4,-2.2,29.68,NNW,341,0.0,0.0,41,-99.99,,,-99.99,meteohub,2013-01-10 20:02:00,
2013-01-10 12:07:00,17.8,-2.4,29.68,NNW,338,0.0,0.0,40,-99.99,,,-99.99,meteohub,2013-01-10 20:07:00,
2013-01-10 12:12:00,18.1,-1.1,29.68,WNW,291,4.0,4.0,42,-99.99,,,-99.99,meteohub,2013-01-10 20:12:00,
2013-01-10 12:17:00,18.1,-1.1,29.68,WNW,291,0.0,4.0,42,-99.99,,,-99.99,meteohub,2013-01-10 20:17:00,
2013-01-10 12:22:00,17.8,-2.0,29.68,NNE,24,3.0,4.0,41,-99.99,,,-99.99,meteohub,2013-01-10 20:22:00,
2013-01-10 12:27:00,17.6,-1.1,29.68,NE,44,3.0,4.0,43,-99.99,,,-99.99,meteohub,2013-01-10 20:27:00,
2013-01-10 12:32:00,17.2,-1.5,29.68,NE,44,0.0,5.0,43,-99.99,,,-99.99,meteohub,2013-01-10 20:32:00,
2013-01-10 12:37:00,17.1,-2.0,29.68,NE,44,0.0,5.0,42,-99.99,,,-99.99,meteohub,2013-01-10 20:37:00,
2013-01-10 12:47:00,17.1,-2.6,29.68,WNW,290,5.0,5.0,41,-99.99,,,-99.99,meteohub,2013-01-10 20:47:00,
2013-01-10 12:52:00,17.2,-1.8,29.68,WSW,246,0.0,6.0,42,-99.99,,,-99.99,meteohub,2013-01-10 20:52:00,
2013-01-10 13:02:00,18.1,-0.6,29.68,WSW,246,3.0,6.0,43,-99.99,,,-99.99,meteohub,2013-01-10 21:02:00,
2013-01-10 13:07:00,18.7,0.0,29.68,WSW,245,3.0,6.0,43,-99.99,,,-99.99,meteohub,2013-01-10 21:07:00,
2013-01-10 13:12:00,19.0,0.1,29.68,WSW,240,0.0,5.0,43,-99.99,,,-99.99,meteohub,2013-01-10 21:12:00,
2013-01-10 13:17:00,18.9,0.1,29.68,East,95,3.0,5.0,43,-99.99,,,-99.99,meteohub,2013-01-10 21:17:00,
2013-01-10 13:22:00,18.5,-1.8,29.68,NE,41,2.0,6.0,40,-99.99,,,-99.99,meteohub,2013-01-10 21:22:00,
2013-01-10 13:27:00,18.0,-2.7,29.68,West,278,5.0,6.0,39,-99.99,,,-99.99,meteohub,2013-01-10 21:27:00,
2013-01-10 13:32:00,17.6,-2.6,29.68,NW,316,2.0,6.0,40,-99.99,,,-99.99,meteohub,2013-01-10 21:32:00,
2013-01-10 13:37:00,17.2,-2.9,29.68,WNW,303,3.0,6.0,40,-99.99,,,-99.99,meteohub,2013-01-10 21:37:00,
2013-01-10 13:42:00,16.9,-3.3,29.68,NNW,342,0.0,6.0,40,-99.99,,,-99.99,meteohub,2013-01-10 21:42:00,
2013-01-10 13:47:00,16.7,-3.5,29.68,NW,306,3.0,6.0,40,-99.99,,,-99.99,meteohub,2013-01-10 21:47:00,
2013-01-10 13:52:00,16.7,-4.5,29.68,WNW,293,5.0,6.0,38,-99.99,,,-99.99,meteohub,2013-01-10 21:52:00,
2013-01-10 13:57:00,16.5,-4.7,29.68,NNW,344,4.0,8.0,38,-99.99,,,-99.99,meteohub,2013-01-10 21:57:00,
2013-01-10 14:02:00,16.3,-5.4,29.68,NW,319,4.0,8.0,37,-99.99,,,-99.99,meteohub,2013-01-10 22:02:00,
2013-01-10 14:07:00,16.3,-4.9,29.68,NE,48,0.0,8.0,38,-99.99,,,-99.99,meteohub,2013-01-10 22:07:00,
2013-01-10 14:12:00,16.5,-4.2,29.68,NNE,28,0.0,6.0,39,-99.99,,,-99.99,meteohub,2013-01-10 22:12:00,
2013-01-10 14:22:00,17.1,-4.7,29.68,WNW,285,8.0,8.0,37,-99.99,,,-99.99,meteohub,2013-01-10 22:22:00,
2013-01-10 14:27:00,17.1,-5.8,29.68,NNE,19,5.0,8.0,35,-99.99,,,-99.99,meteohub,2013-01-10 22:27:00,
2013-01-10 14:32:00,17.2,-5.8,29.68,North,5,4.0,8.0,35,-99.99,,,-99.99,meteohub,2013-01-10 22:32:00,
2013-01-10 14:42:00,17.6,-5.4,29.68,North,353,3.0,8.0,35,-99.99,,,-99.99,meteohub,2013-01-10 22:42:00,
2013-01-10 14:47:00,17.4,-5.6,29.68,West,263,6.0,8.0,35,-99.99,,,-99.99,meteohub,2013-01-10 22:47:00,
2013-01-10 14:52:00,17.2,-5.8,29.68,NW,322,6.0,11.0,35,-99.99,,,-99.99,meteohub,2013-01-10 22:52:00,
2013-01-10 14:57:00,16.9,-5.4,29.68,NNW,346,5.0,12.0,36,-99.99,,,-99.99,meteohub,2013-01-10 22:57:00,
2013-01-10 15:02:00,16.7,-6.2,29.68,WNW,292,8.0,12.0,35,-99.99,,,-99.99,meteohub,2013-01-10 23:02:00,
2013-01-10 15:12:00,16.7,-6.2,29.72,NNW,328,5.0,9.0,35,-99.99,,,-99.99,meteohub,2013-01-10 23:12:00,
2013-01-10 15:22:00,16.2,-6.7,29.72,NNW,342,7.0,9.0,35,-99.99,,,-99.99,meteohub,2013-01-10 23:22:00,
2013-01-10 15:27:00,16.0,-6.9,29.72,NW,317,0.0,8.0,35,-99.99,,,-99.99,meteohub,2013-01-10 23:27:00,
2013-01-10 15:32:00,15.8,-7.1,29.72,West,273,3.0,8.0,35,-99.99,,,-99.99,meteohub,2013-01-10 23:32:00,
2013-01-10 15:37:00,15.4,-6.7,29.72,NNE,13,5.0,7.0,36,-99.99,,,-99.99,meteohub,2013-01-10 23:37:00,
2013-01-10 15:42:00,15.1,-7.1,29.72,North,3,3.0,6.0,36,-99.99,,,-99.99,meteohub,2013-01-10 23:42:00,
2013-01-10 15:47:00,15.1,-7.1,29.72,NW,312,2.0,6.0,36,-99.99,,,-99.99,meteohub,2013-01-10 23:47:00,
2013-01-10 15:57:00,14.5,-8.1,29.72,NW,305,4.0,5.0,35,-99.99,,,-99.99,meteohub,2013-01-10 23:57:00,
2013-01-10 16:02:00,14.4,-7.8,29.72,West,271,3.0,5.0,36,-99.99,,,-99.99,meteohub,2013-01-11 00:02:00,
2013-01-10 16:07:00,14.4,-7.8,29.72,NNW,341,3.0,5.0,36,-99.99,,,-99.99,meteohub,2013-01-11 00:07:00,
2013-01-10 16:12:00,14.2,-8.0,29.72,NNE,32,4.0,6.0,36,-99.99,,,-99.99,meteohub,2013-01-11 00:12:00,
2013-01-10 16:17:00,14.2,-8.0,29.72,NE,43,0.0,11.0,36,-99.99,,,-99.99,meteohub,2013-01-11 00:17:00,
2013-01-10 16:22:00,14.2,-7.2,29.72,NNE,16,5.0,11.0,37,-99.99,,,-99.99,meteohub,2013-01-11 00:22:00,
2013-01-10 16:27:00,14.0,-8.0,29.72,North,0,9.0,11.0,36,-99.99,,,-99.99,meteohub,2013-01-11 00:27:00,
2013-01-10 16:32:00,14.0,-8.0,29.72,NW,315,0.0,9.0,36,-99.99,,,-99.99,meteohub,2013-01-11 00:32:00,
2013-01-10 16:37:00,14.0,-8.0,29.72,North,0,5.0,9.0,36,-99.99,,,-99.99,meteohub,2013-01-11 00:37:00,
2013-01-10 16:42:00,14.2,-8.0,29.72,NNE,20,4.0,9.0,36,-99.99,,,-99.99,meteohub,2013-01-11 00:42:00,
2013-01-10 16:57:00,13.5,-8.5,29.72,West,270,0.0,5.0,36,-99.99,,,-99.99,meteohub,2013-01-11 00:57:00,
2013-01-10 17:02:00,13.1,-8.9,29.72,West,280,3.0,9.0,36,-99.99,,,-99.99,meteohub,2013-01-11 01:02:00,
2013-01-10 17:07:00,13.1,-8.9,29.72,North,353,3.0,9.0,36,-99.99,,,-99.99,meteohub,2013-01-11 01:07:00,
2013-01-10 17:12:00,12.9,-9.0,29.72,NW,310,0.0,9.0,36,-99.99,,,-99.99,meteohub,2013-01-11 01:12:00,
2013-01-10 17:17:00,12.7,-9.2,29.72,WNW,290,3.0,8.0,36,-99.99,,,-99.99,meteohub,2013-01-11 01:17:00,
2013-01-10 17:27:00,12.9,-9.0,29.72,NW,313,0.0,6.0,36,-99.99,,,-99.99,meteohub,2013-01-11 01:27:00,
2013-01-10 17:32:00,12.7,-9.2,29.72,NW,318,0.0,6.0,36,-99.99,,,-99.99,meteohub,2013-01-11 01:32:00,
2013-01-10 17:37:00,12.6,-9.4,29.72,West,266,5.0,6.0,36,-99.99,,,-99.99,meteohub,2013-01-11 01:37:00,
2013-01-10 17:42:00,12.4,-9.6,29.72,West,264,0.0,6.0,36,-99.99,,,-99.99,meteohub,2013-01-11 01:42:00,
2013-01-10 17:52:00,12.4,-9.6,29.72,WNW,298,0.0,11.0,36,-99.99,,,-99.99,meteohub,2013-01-11 01:52:00,
2013-01-10 17:57:00,12.6,-9.4,29.72,West,272,0.0,11.0,36,-99.99,,,-99.99,meteohub,2013-01-11 01:57:00,
2013-01-10 18:02:00,12.6,-9.4,29.72,WSW,239,3.0,8.0,36,-99.99,,,-99.99,meteohub,2013-01-11 02:02:00,
2013-01-10 18:07:00,12.7,-9.2,29.72,WSW,245,0.0,8.0,36,-99.99,,,-99.99,meteohub,2013-01-11 02:07:00,
2013-01-10 18:12:00,12.9,-9.0,29.72,West,271,6.0,8.0,36,-99.99,,,-99.99,meteohub,2013-01-11 02:12:00,
2013-01-10 18:17:00,13.3,-8.7,29.72,West,276,0.0,8.0,36,-99.99,,,-99.99,meteohub,2013-01-11 02:17:00,
2013-01-10 18:22:00,13.5,-8.5,29.72,SW,232,7.0,10.0,36,-99.99,,,-99.99,meteohub,2013-01-11 02:22:00,
2013-01-10 18:27:00,13.5,-8.5,29.72,West,265,0.0,10.0,36,-99.99,,,-99.99,meteohub,2013-01-11 02:27:00,
2013-01-10 18:32:00,13.3,-8.7,29.72,SSE,163,3.0,8.0,36,-99.99,,,-99.99,meteohub,2013-01-11 02:32:00,
2013-01-10 18:37:00,13.1,-8.9,29.72,West,274,3.0,8.0,36,-99.99,,,-99.99,meteohub,2013-01-11 02:37:00,
2013-01-10 18:42:00,13.1,-8.9,29.72,WNW,287,6.0,6.0,36,-99.99,,,-99.99,meteohub,2013-01-11 02:42:00,
2013-01-10 18:47:00,13.3,-8.7,29.72,NNW,344,0.0,8.0,36,-99.99,,,-99.99,meteohub,2013-01-11 02:47:00,
2013-01-10 18:52:00,13.3,-8.7,29.72,North,7,6.0,8.0,36,-99.99,,,-99.99,meteohub,2013-01-11 02:52:00,
2013-01-10 19:02:00,13.6,-8.3,29.72,WNW,286,3.0,8.0,36,-99.99,,,-99.99,meteohub,2013-01-11 03:02:00,
2013-01-10 19:07:00,13.6,-8.3,29.72,WNW,297,4.0,8.0,36,-99.99,,,-99.99,meteohub,2013-01-11 03:07:00,
2013-01-10 19:17:00,13.6,-8.3,29.76,NNW,338,3.0,8.0,36,-99.99,,,-99.99,meteohub,2013-01-11 03:17:00,
2013-01-10 19:22:00,13.6,-8.3,29.76,NE,43,3.0,8.0,36,-99.99,,,-99.99,meteohub,2013-01-11 03:22:00,
2013-01-10 19:27:00,13.5,-8.5,29.76,NNW,331,3.0,11.0,36,-99.99,,,-99.99,meteohub,2013-01-11 03:27:00,
2013-01-10 19:32:00,13.6,-8.3,29.76,West,272,4.0,11.0,36,-99.99,,,-99.99,meteohub,2013-01-11 03:32:00,
2013-01-10 19:37:00,13.6,-8.3,29.76,North,350,3.0,11.0,36,-99.99,,,-99.99,meteohub,2013-01-11 03:37:00,
2013-01-10 19:42:00,13.6,-8.3,29.76,NNE,14,5.0,13.0,36,-99.99,,,-99.99,meteohub,2013-01-11 03:42:00,
2013-01-10 19:47:00,13.8,-8.1,29.76,NNW,337,3.0,13.0,36,-99.99,,,-99.99,meteohub,2013-01-11 03:47:00,
2013-01-10 19:52:00,13.6,-8.3,29.76,NW,318,6.0,13.0,36,-99.99,,,-99.99,meteohub,2013-01-11 03:52:00,
2013-01-10 19:57:00,13.5,-8.5,29.72,NNW,328,8.0,10.0,36,-99.99,,,-99.99,meteohub,2013-01-11 03:57:00,
2013-01-10 20:02:00,13.6,-8.3,29.72,NE,55,5.0,12.0,36,-99.99,,,-99.99,meteohub,2013-01-11 04:02:00,
2013-01-10 20:07:00,13.6,-8.3,29.72,NNE,25,6.0,12.0,36,-99.99,,,-99.99,meteohub,2013-01-11 04:07:00,
2013-01-10 20:12:00,13.8,-8.1,29.76,NNW,335,3.0,17.0,36,-99.99,,,-99.99,meteohub,2013-01-11 04:12:00,
2013-01-10 20:17:00,13.6,-8.3,29.76,WNW,286,8.0,17.0,36,-99.99,,,-99.99,meteohub,2013-01-11 04:17:00,
2013-01-10 20:22:00,13.8,-8.1,29.76,North,357,6.0,17.0,36,-99.99,,,-99.99,meteohub,2013-01-11 04:22:00,
2013-01-10 20:27:00,13.8,-8.1,29.76,NNE,30,3.0,11.0,36,-99.99,,,-99.99,meteohub,2013-01-11 04:27:00,
2013-01-10 20:32:00,13.6,-8.3,29.76,NNE,31,6.0,11.0,36,-99.99,,,-99.99,meteohub,2013-01-11 04:32:00,
2013-01-10 20:37:00,13.6,-8.3,29.76,NW,311,3.0,11.0,36,-99.99,,,-99.99,meteohub,2013-01-11 04:37:00,
2013-01-10 20:42:00,13.5,-8.5,29.76,North,353,0.0,9.0,36,-99.99,,,-99.99,meteohub,2013-01-11 04:42:00,
2013-01-10 20:47:00,13.3,-8.7,29.76,WNW,292,3.0,9.0,36,-99.99,,,-99.99,meteohub,2013-01-11 04:47:00,
2013-01-10 20:57:00,13.6,-8.3,29.76,NNW,329,6.0,13.0,36,-99.99,,,-99.99,meteohub,2013-01-11 04:57:00,
2013-01-10 21:02:00,13.6,-8.3,29.76,North,7,4.0,13.0,36,-99.99,,,-99.99,meteohub,2013-01-11 05:02:00,
2013-01-10 21:12:00,13.5,-8.5,29.76,North,10,4.0,10.0,36,-99.99,,,-99.99,meteohub,2013-01-11 05:12:00,
2013-01-10 21:17:00,13.5,-8.5,29.76,West,276,3.0,10.0,36,-99.99,,,-99.99,meteohub,2013-01-11 05:17:00,
2013-01-10 21:22:00,13.3,-8.7,29.76,NW,326,4.0,8.0,36,-99.99,,,-99.99,meteohub,2013-01-11 05:22:00,
2013-01-10 21:27:00,13.3,-8.7,29.76,North,357,4.0,7.0,36,-99.99,,,-99.99,meteohub,2013-01-11 05:27:00,
2013-01-10 21:32:00,13.3,-8.7,29.76,West,274,8.0,8.0,36,-99.99,,,-99.99,meteohub,2013-01-11 05:32:00,
2013-01-10 21:37:00,13.3,-8.7,29.76,North,353,3.0,15.0,36,-99.99,,,-99.99,meteohub,2013-01-11 05:37:00,
2013-01-10 21:42:00,13.3,-8.7,29.76,NE,42,4.0,15.0,36,-99.99,,,-99.99,meteohub,2013-01-11 05:42:00,
2013-01-10 21:52:00,13.5,-8.5,29.76,NNW,340,3.0,12.0,36,-99.99,,,-99.99,meteohub,2013-01-11 05:52:00,
2013-01-10 21:57:00,13.5,-8.5,29.76,West,281,8.0,12.0,36,-99.99,,,-99.99,meteohub,2013-01-11 05:57:00,
2013-01-10 22:02:00,13.5,-8.5,29.76,North,350,8.0,13.0,36,-99.99,,,-99.99,meteohub,2013-01-11 06:02:00,
2013-01-10 22:07:00,13.6,-8.3,29.76,NW,304,6.0,13.0,36,-99.99,,,-99.99,meteohub,2013-01-11 06:07:00,
2013-01-10 22:17:00,13.5,-8.5,29.76,NNE,32,4.0,13.0,36,-99.99,,,-99.99,meteohub,2013-01-11 06:17:00,
2013-01-10 22:22:00,13.5,-8.5,29.76,North,350,3.0,13.0,36,-99.99,,,-99.99,meteohub,2013-01-11 06:22:00,
2013-01-10 22:27:00,13.5,-8.5,29.76,NNW,335,4.0,13.0,36,-99.99,,,-99.99,meteohub,2013-01-11 06:27:00,
2013-01-10 22:32:00,13.5,-8.5,29.76,NW,316,14.0,14.0,36,-99.99,,,-99.99,meteohub,2013-01-11 06:32:00,
2013-01-10 22:37:00,13.5,-8.5,29.76,WNW,291,8.0,14.0,36,-99.99,,,-99.99,meteohub,2013-01-11 06:37:00,
2013-01-10 22:42:00,13.5,-8.5,29.76,NE,35,4.0,14.0,36,-99.99,,,-99.99,meteohub,2013-01-11 06:42:00,
2013-01-10 22:47:00,13.5,-8.5,29.76,WNW,295,5.0,14.0,36,-99.99,,,-99.99,meteohub,2013-01-11 06:47:00,
2013-01-10 22:52:00,13.3,-8.7,29.76,NE,54,4.0,13.0,36,-99.99,,,-99.99,meteohub,2013-01-11 06:52:00,
2013-01-10 22:57:00,12.9,-9.0,29.76,NNE,24,0.0,12.0,36,-99.99,,,-99.99,meteohub,2013-01-11 06:57:00,
2013-01-10 23:02:00,12.7,-9.2,29.76,NNW,327,6.0,8.0,36,-99.99,,,-99.99,meteohub,2013-01-11 07:02:00,
2013-01-10 23:07:00,12.9,-9.0,29.76,SE,144,3.0,8.0,36,-99.99,,,-99.99,meteohub,2013-01-11 07:07:00,
2013-01-10 23:17:00,12.9,-9.0,29.76,WNW,297,6.0,11.0,36,-99.99,,,-99.99,meteohub,2013-01-11 07:17:00,
2013-01-10 23:22:00,13.1,-8.9,29.76,North,357,2.0,11.0,36,-99.99,,,-99.99,meteohub,2013-01-11 07:22:00,
2013-01-10 23:27:00,13.1,-8.9,29.76,NNW,330,3.0,11.0,36,-99.99,,,-99.99,meteohub,2013-01-11 07:27:00,
2013-01-10 23:32:00,13.3,-8.7,29.76,WNW,287,3.0,8.0,36,-99.99,,,-99.99,meteohub,2013-01-11 07:32:00,
2013-01-10 23:37:00,13.1,-8.9,29.76,West,270,5.0,11.0,36,-99.99,,,-99.99,meteohub,2013-01-11 07:37:00,
2013-01-10 23:47:00,13.3,-8.7,29.76,NW,304,12.0,12.0,36,-99.99,,,-99.99,meteohub,2013-01-11 07:47:00,
2013-01-10 23:52:00,13.3,-8.7,29.76,NW,319,6.0,12.0,36,-99.99,,,-99.99,meteohub,2013-01-11 07:52:00,
2013-01-10 23:57:00,13.5,-8.5,29.76,NW,318,0.0,12.0,36,-99.99,,,-99.99,meteohub,2013-01-11 07:57:00,